Year,Month,Day,Hour,Minute,Value (Times are PST for temperature in C)
2022,10,02,00,00,15.00
2022,10,02,00,01,15.00
2022,10,02,00,02,15.00
2022,10,02,00,03,15.00
2022,10,02,00,04,15.00
2022,10,02,00,05,15.00
2022,10,02,00,06,15.00
2022,10,02,00,07,15.00
2022,10,02,00,08,15.00
2022,10,02,00,09,15.00
2022,10,02,00,10,15.00
2022,10,02,00,11,15.00
2022,10,02,00,12,15.00
2022,10,02,00,13,15.00
2022,10,02,00,14,15.00
2022,10,02,00,15,15.00
2022,10,02,00,16,14.90
2022,10,02,00,17,14.90
2022,10,02,00,18,14.90
2022,10,02,00,19,14.90
2022,10,02,00,20,14.90
2022,10,02,00,21,14.90
2022,10,02,00,22,14.90
2022,10,02,00,23,14.90
2022,10,02,00,24,14.90
2022,10,02,00,25,14.90
2022,10,02,00,26,14.90
2022,10,02,00,27,14.90
2022,10,02,00,28,14.90
2022,10,02,00,29,14.90
2022,10,02,00,30,14.90
2022,10,02,00,31,14.90
2022,10,02,00,32,14.90
2022,10,02,00,33,14.90
2022,10,02,00,34,14.90
2022,10,02,00,35,14.90
2022,10,02,00,36,14.90
2022,10,02,00,37,14.90
2022,10,02,00,38,14.90
2022,10,02,00,39,14.90
2022,10,02,00,40,14.90
2022,10,02,00,41,14.80
2022,10,02,00,42,14.80
2022,10,02,00,43,14.80
2022,10,02,00,44,14.80
2022,10,02,00,45,14.80
2022,10,02,00,46,14.80
2022,10,02,00,47,14.80
2022,10,02,00,48,14.80
2022,10,02,00,49,14.80
2022,10,02,00,50,14.80
2022,10,02,00,51,14.80
2022,10,02,00,52,14.80
2022,10,02,00,53,14.80
2022,10,02,00,54,14.80
2022,10,02,00,55,14.80
2022,10,02,00,56,14.80
2022,10,02,00,57,14.80
2022,10,02,00,58,14.80
2022,10,02,00,59,14.80
2022,10,02,01,00,14.80
2022,10,02,01,01,14.80
2022,10,02,01,02,14.80
2022,10,02,01,03,14.80
2022,10,02,01,04,14.80
2022,10,02,01,05,14.80
2022,10,02,01,06,14.80
2022,10,02,01,07,14.80
2022,10,02,01,08,14.80
2022,10,02,01,09,14.80
2022,10,02,01,10,14.80
2022,10,02,01,11,14.80
2022,10,02,01,12,14.80
2022,10,02,01,13,14.80
2022,10,02,01,14,14.70
2022,10,02,01,15,14.70
2022,10,02,01,16,14.70
2022,10,02,01,17,14.70
2022,10,02,01,18,14.70
2022,10,02,01,19,14.70
2022,10,02,01,20,14.70
2022,10,02,01,21,14.70
2022,10,02,01,22,14.70
2022,10,02,01,23,14.70
2022,10,02,01,24,14.70
2022,10,02,01,25,14.70
2022,10,02,01,26,14.70
2022,10,02,01,27,14.70
2022,10,02,01,28,14.70
2022,10,02,01,29,14.70
2022,10,02,01,30,14.70
2022,10,02,01,31,14.70
2022,10,02,01,32,14.70
2022,10,02,01,33,14.70
2022,10,02,01,34,14.70
2022,10,02,01,35,14.70
2022,10,02,01,36,14.70
2022,10,02,01,37,14.70
2022,10,02,01,38,14.70
2022,10,02,01,39,14.70
2022,10,02,01,40,14.70
2022,10,02,01,41,14.70
2022,10,02,01,42,14.70
2022,10,02,01,43,14.70
2022,10,02,01,44,14.70
2022,10,02,01,45,14.70
2022,10,02,01,46,14.70
2022,10,02,01,47,14.70
2022,10,02,01,48,14.70
2022,10,02,01,49,14.70
2022,10,02,01,50,14.70
2022,10,02,01,51,14.70
2022,10,02,01,52,14.70
2022,10,02,01,53,14.70
2022,10,02,01,54,14.70
2022,10,02,01,55,14.70
2022,10,02,01,56,14.70
2022,10,02,01,57,14.70
2022,10,02,01,58,14.70
2022,10,02,01,59,14.70
2022,10,02,02,00,14.70
2022,10,02,02,01,14.70
2022,10,02,02,02,14.70
2022,10,02,02,03,14.70
2022,10,02,02,04,14.60
2022,10,02,02,05,14.60
2022,10,02,02,06,14.60
2022,10,02,02,07,14.70
2022,10,02,02,08,14.70
2022,10,02,02,09,14.70
2022,10,02,02,10,14.60
2022,10,02,02,11,14.60
2022,10,02,02,12,14.60
2022,10,02,02,13,14.60
2022,10,02,02,14,14.60
2022,10,02,02,15,14.60
2022,10,02,02,16,14.60
2022,10,02,02,17,14.60
2022,10,02,02,18,14.60
2022,10,02,02,19,14.60
2022,10,02,02,20,14.60
2022,10,02,02,21,14.60
2022,10,02,02,22,14.60
2022,10,02,02,23,14.60
2022,10,02,02,24,14.60
2022,10,02,02,25,14.60
2022,10,02,02,26,14.60
2022,10,02,02,27,14.60
2022,10,02,02,28,14.60
2022,10,02,02,29,14.60
2022,10,02,02,30,14.60
2022,10,02,02,31,14.60
2022,10,02,02,32,14.60
2022,10,02,02,33,14.60
2022,10,02,02,34,14.60
2022,10,02,02,35,14.60
2022,10,02,02,36,14.60
2022,10,02,02,37,14.60
2022,10,02,02,38,14.60
2022,10,02,02,39,14.60
2022,10,02,02,40,14.60
2022,10,02,02,41,14.60
2022,10,02,02,42,14.50
2022,10,02,02,43,14.50
2022,10,02,02,44,14.50
2022,10,02,02,45,14.50
2022,10,02,02,46,14.50
2022,10,02,02,47,14.50
2022,10,02,02,48,14.50
2022,10,02,02,49,14.50
2022,10,02,02,50,14.50
2022,10,02,02,51,14.50
2022,10,02,02,52,14.50
2022,10,02,02,53,14.40
2022,10,02,02,54,14.40
2022,10,02,02,55,14.40
2022,10,02,02,56,14.40
2022,10,02,02,57,14.40
2022,10,02,02,58,14.40
2022,10,02,02,59,14.40
2022,10,02,03,00,14.40
2022,10,02,03,01,14.40
2022,10,02,03,02,14.40
2022,10,02,03,03,14.40
2022,10,02,03,04,14.40
2022,10,02,03,05,14.40
2022,10,02,03,06,14.40
2022,10,02,03,07,14.40
2022,10,02,03,08,14.30
2022,10,02,03,09,14.30
2022,10,02,03,10,14.30
2022,10,02,03,11,14.30
2022,10,02,03,12,14.30
2022,10,02,03,13,14.30
2022,10,02,03,14,14.30
2022,10,02,03,15,14.30
2022,10,02,03,16,14.30
2022,10,02,03,17,14.30
2022,10,02,03,18,14.30
2022,10,02,03,19,14.30
2022,10,02,03,20,14.30
2022,10,02,03,21,14.30
2022,10,02,03,22,14.30
2022,10,02,03,23,14.30
2022,10,02,03,24,14.30
2022,10,02,03,25,14.30
2022,10,02,03,26,14.30
2022,10,02,03,27,14.30
2022,10,02,03,28,14.20
2022,10,02,03,29,14.20
2022,10,02,03,30,14.20
2022,10,02,03,31,14.20
2022,10,02,03,32,14.20
2022,10,02,03,33,14.20
2022,10,02,03,34,14.20
2022,10,02,03,35,14.20
2022,10,02,03,36,14.20
2022,10,02,03,37,14.20
2022,10,02,03,38,14.20
2022,10,02,03,39,14.20
2022,10,02,03,40,14.20
2022,10,02,03,41,14.20
2022,10,02,03,42,14.20
2022,10,02,03,43,14.20
2022,10,02,03,44,14.20
2022,10,02,03,45,14.20
2022,10,02,03,46,14.20
2022,10,02,03,47,14.20
2022,10,02,03,48,14.20
2022,10,02,03,49,14.20
2022,10,02,03,50,14.10
2022,10,02,03,51,14.20
2022,10,02,03,52,14.10
2022,10,02,03,53,14.10
2022,10,02,03,54,14.10
2022,10,02,03,55,14.10
2022,10,02,03,56,14.10
2022,10,02,03,57,14.10
2022,10,02,03,58,14.10
2022,10,02,03,59,14.10
2022,10,02,04,00,14.10
2022,10,02,04,01,14.10
2022,10,02,04,02,14.10
2022,10,02,04,03,14.10
2022,10,02,04,04,14.10
2022,10,02,04,05,14.10
2022,10,02,04,06,14.10
2022,10,02,04,07,14.10
2022,10,02,04,08,14.10
2022,10,02,04,09,14.10
2022,10,02,04,10,14.10
2022,10,02,04,11,14.10
2022,10,02,04,12,14.10
2022,10,02,04,13,14.10
2022,10,02,04,14,14.10
2022,10,02,04,15,14.10
2022,10,02,04,16,14.00
2022,10,02,04,17,14.10
2022,10,02,04,18,14.00
2022,10,02,04,19,14.00
2022,10,02,04,20,14.00
2022,10,02,04,21,14.00
2022,10,02,04,22,14.00
2022,10,02,04,23,14.00
2022,10,02,04,24,14.00
2022,10,02,04,25,14.00
2022,10,02,04,26,14.00
2022,10,02,04,27,14.00
2022,10,02,04,28,14.00
2022,10,02,04,29,13.90
2022,10,02,04,30,13.90
2022,10,02,04,31,13.90
2022,10,02,04,32,13.90
2022,10,02,04,33,13.90
2022,10,02,04,34,13.90
2022,10,02,04,35,13.90
2022,10,02,04,36,13.90
2022,10,02,04,37,13.90
2022,10,02,04,38,13.90
2022,10,02,04,39,13.90
2022,10,02,04,40,13.90
2022,10,02,04,41,13.90
2022,10,02,04,42,13.90
2022,10,02,04,43,13.90
2022,10,02,04,44,13.90
2022,10,02,04,45,13.90
2022,10,02,04,46,13.80
2022,10,02,04,47,13.80
2022,10,02,04,48,13.80
2022,10,02,04,49,13.80
2022,10,02,04,50,13.80
2022,10,02,04,51,13.80
2022,10,02,04,52,13.80
2022,10,02,04,53,13.80
2022,10,02,04,54,13.80
2022,10,02,04,55,13.80
2022,10,02,04,56,13.80
2022,10,02,04,57,13.80
2022,10,02,04,58,13.80
2022,10,02,04,59,13.80
2022,10,02,05,00,13.80
2022,10,02,05,01,13.70
2022,10,02,05,02,13.70
2022,10,02,05,03,13.70
2022,10,02,05,04,13.70
2022,10,02,05,05,13.70
2022,10,02,05,06,13.70
2022,10,02,05,07,13.70
2022,10,02,05,08,13.70
2022,10,02,05,09,13.70
2022,10,02,05,10,13.70
2022,10,02,05,11,13.70
2022,10,02,05,12,13.70
2022,10,02,05,13,13.70
2022,10,02,05,14,13.70
2022,10,02,05,15,13.70
2022,10,02,05,16,13.70
2022,10,02,05,17,13.70
2022,10,02,05,18,13.70
2022,10,02,05,19,13.60
2022,10,02,05,20,13.60
2022,10,02,05,21,13.60
2022,10,02,05,22,13.60
2022,10,02,05,23,13.60
2022,10,02,05,24,13.60
2022,10,02,05,25,13.60
2022,10,02,05,26,13.60
2022,10,02,05,27,13.60
2022,10,02,05,28,13.60
2022,10,02,05,29,13.60
2022,10,02,05,30,13.50
2022,10,02,05,31,13.50
2022,10,02,05,32,13.50
2022,10,02,05,33,13.50
2022,10,02,05,34,13.50
2022,10,02,05,35,13.50
2022,10,02,05,36,13.50
2022,10,02,05,37,13.40
2022,10,02,05,38,13.40
2022,10,02,05,39,13.40
2022,10,02,05,40,13.40
2022,10,02,05,41,13.40
2022,10,02,05,42,13.40
2022,10,02,05,43,13.40
2022,10,02,05,44,13.40
2022,10,02,05,45,13.30
2022,10,02,05,46,13.30
2022,10,02,05,47,13.30
2022,10,02,05,48,13.30
2022,10,02,05,49,13.30
2022,10,02,05,50,13.30
2022,10,02,05,51,13.30
2022,10,02,05,52,13.30
2022,10,02,05,53,13.30
2022,10,02,05,54,13.30
2022,10,02,05,55,13.30
2022,10,02,05,56,13.30
2022,10,02,05,57,13.30
2022,10,02,05,58,13.30
2022,10,02,05,59,13.30
2022,10,02,06,00,13.30
2022,10,02,06,01,13.30
2022,10,02,06,02,13.30
2022,10,02,06,03,13.30
2022,10,02,06,04,13.30
2022,10,02,06,05,13.30
2022,10,02,06,06,13.30
2022,10,02,06,07,13.30
2022,10,02,06,08,13.20
2022,10,02,06,09,13.20
2022,10,02,06,10,13.20
2022,10,02,06,11,13.20
2022,10,02,06,12,13.20
2022,10,02,06,13,13.20
2022,10,02,06,14,13.20
2022,10,02,06,15,13.10
2022,10,02,06,16,13.10
2022,10,02,06,17,13.10
2022,10,02,06,18,13.10
2022,10,02,06,19,13.10
2022,10,02,06,20,13.10
2022,10,02,06,21,13.10
2022,10,02,06,22,13.00
2022,10,02,06,23,13.00
2022,10,02,06,24,13.00
2022,10,02,06,25,12.90
2022,10,02,06,26,12.90
2022,10,02,06,27,12.90
2022,10,02,06,28,12.90
2022,10,02,06,29,12.90
2022,10,02,06,30,12.90
2022,10,02,06,31,12.80
2022,10,02,06,32,12.80
2022,10,02,06,33,12.80
2022,10,02,06,34,12.80
2022,10,02,06,35,12.80
2022,10,02,06,36,12.80
2022,10,02,06,37,12.70
2022,10,02,06,38,12.70
2022,10,02,06,39,12.70
2022,10,02,06,40,12.70
2022,10,02,06,41,12.70
2022,10,02,06,42,12.70
2022,10,02,06,43,12.60
2022,10,02,06,44,12.60
2022,10,02,06,45,12.60
2022,10,02,06,46,12.50
2022,10,02,06,47,12.50
2022,10,02,06,48,12.40
2022,10,02,06,49,12.40
2022,10,02,06,50,12.30
2022,10,02,06,51,12.30
2022,10,02,06,52,12.30
2022,10,02,06,53,12.30
2022,10,02,06,54,12.20
2022,10,02,06,55,12.20
2022,10,02,06,56,12.20
2022,10,02,06,57,12.10
2022,10,02,06,58,12.10
2022,10,02,06,59,12.10
2022,10,02,07,00,12.10
2022,10,02,07,01,12.10
2022,10,02,07,02,12.00
2022,10,02,07,03,12.00
2022,10,02,07,04,12.00
2022,10,02,07,05,12.00
2022,10,02,07,06,11.90
2022,10,02,07,07,11.90
2022,10,02,07,08,11.90
2022,10,02,07,09,11.90
2022,10,02,07,10,11.80
2022,10,02,07,11,11.80
2022,10,02,07,12,11.80
2022,10,02,07,13,11.70
2022,10,02,07,14,11.70
2022,10,02,07,15,11.70
2022,10,02,07,16,11.70
2022,10,02,07,17,11.60
2022,10,02,07,18,11.60
2022,10,02,07,19,11.60
2022,10,02,07,20,11.60
2022,10,02,07,21,11.60
2022,10,02,07,22,11.50
2022,10,02,07,23,11.50
2022,10,02,07,24,11.50
2022,10,02,07,25,11.50
2022,10,02,07,26,11.50
2022,10,02,07,27,11.50
2022,10,02,07,28,11.50
2022,10,02,07,29,11.40
2022,10,02,07,30,11.40
2022,10,02,07,31,11.40
2022,10,02,07,32,11.40
2022,10,02,07,33,11.40
2022,10,02,07,34,11.40
2022,10,02,07,35,11.40
2022,10,02,07,36,11.40
2022,10,02,07,37,11.40
2022,10,02,07,38,11.40
2022,10,02,07,39,11.30
2022,10,02,07,40,11.30
2022,10,02,07,41,11.30
2022,10,02,07,42,11.30
2022,10,02,07,43,11.30
2022,10,02,07,44,11.30
2022,10,02,07,45,11.30
2022,10,02,07,46,11.30
2022,10,02,07,47,11.30
2022,10,02,07,48,11.30
2022,10,02,07,49,11.30
2022,10,02,07,50,11.30
2022,10,02,07,51,11.30
2022,10,02,07,52,11.30
2022,10,02,07,53,11.30
2022,10,02,07,54,11.30
2022,10,02,07,55,11.30
2022,10,02,07,56,11.20
2022,10,02,07,57,11.20
2022,10,02,07,58,11.20
2022,10,02,07,59,11.20
2022,10,02,08,00,11.20
2022,10,02,08,01,11.20
2022,10,02,08,02,11.20
2022,10,02,08,03,11.20
2022,10,02,08,04,11.20
2022,10,02,08,05,11.20
2022,10,02,08,06,11.20
2022,10,02,08,07,11.20
2022,10,02,08,08,11.20
2022,10,02,08,09,11.20
2022,10,02,08,10,11.20
2022,10,02,08,11,11.20
2022,10,02,08,12,11.20
2022,10,02,08,13,11.20
2022,10,02,08,14,11.20
2022,10,02,08,15,11.20
2022,10,02,08,16,11.20
2022,10,02,08,17,11.30
2022,10,02,08,18,11.30
2022,10,02,08,19,11.30
2022,10,02,08,20,11.30
2022,10,02,08,21,11.30
2022,10,02,08,22,11.30
2022,10,02,08,23,11.30
2022,10,02,08,24,11.30
2022,10,02,08,25,11.30
2022,10,02,08,26,11.30
2022,10,02,08,27,11.30
2022,10,02,08,28,11.40
2022,10,02,08,29,11.40
2022,10,02,08,30,11.40
2022,10,02,08,31,11.40
2022,10,02,08,32,11.40
2022,10,02,08,33,11.50
2022,10,02,08,34,11.50
2022,10,02,08,35,11.50
2022,10,02,08,36,11.60
2022,10,02,08,37,11.60
2022,10,02,08,38,11.60
2022,10,02,08,39,11.60
2022,10,02,08,40,11.60
2022,10,02,08,41,11.70
2022,10,02,08,42,11.70
2022,10,02,08,43,11.80
2022,10,02,08,44,11.80
2022,10,02,08,45,11.80
2022,10,02,08,46,11.90
2022,10,02,08,47,11.90
2022,10,02,08,48,12.00
2022,10,02,08,49,12.00
2022,10,02,08,50,12.10
2022,10,02,08,51,12.10
2022,10,02,08,52,12.10
2022,10,02,08,53,12.20
2022,10,02,08,54,12.20
2022,10,02,08,55,12.30
2022,10,02,08,56,12.30
2022,10,02,08,57,12.40
2022,10,02,08,58,12.50
2022,10,02,08,59,12.60
2022,10,02,09,00,12.60
2022,10,02,09,01,12.70
2022,10,02,09,02,12.80
2022,10,02,09,03,12.90
2022,10,02,09,04,13.00
2022,10,02,09,05,13.00
2022,10,02,09,06,13.20
2022,10,02,09,07,13.20
2022,10,02,09,08,13.30
2022,10,02,09,09,13.40
2022,10,02,09,10,13.50
2022,10,02,09,11,13.60
2022,10,02,09,12,13.70
2022,10,02,09,13,13.80
2022,10,02,09,14,13.90
2022,10,02,09,15,14.00
2022,10,02,09,16,14.00
2022,10,02,09,17,14.10
2022,10,02,09,18,14.10
2022,10,02,09,19,14.30
2022,10,02,09,20,14.40
2022,10,02,09,21,14.60
2022,10,02,09,22,14.60
2022,10,02,09,23,14.80
2022,10,02,09,24,15.00
2022,10,02,09,25,15.10
2022,10,02,09,26,15.30
2022,10,02,09,27,15.40
2022,10,02,09,28,15.60
2022,10,02,09,29,15.70
2022,10,02,09,30,15.90
2022,10,02,09,31,16.00
2022,10,02,09,32,16.20
2022,10,02,09,33,16.30
2022,10,02,09,34,16.40
2022,10,02,09,35,16.50
2022,10,02,09,36,16.60
2022,10,02,09,37,16.70
2022,10,02,09,38,16.90
2022,10,02,09,39,17.00
2022,10,02,09,40,17.10
2022,10,02,09,41,17.20
2022,10,02,09,42,17.30
2022,10,02,09,43,17.50
2022,10,02,09,44,17.60
2022,10,02,09,45,17.70
2022,10,02,09,46,17.80
2022,10,02,09,47,18.00
2022,10,02,09,48,18.10
2022,10,02,09,49,18.20
2022,10,02,09,50,18.30
2022,10,02,09,51,18.30
2022,10,02,09,52,18.40
2022,10,02,09,53,18.50
2022,10,02,09,54,18.60
2022,10,02,09,55,18.70
2022,10,02,09,56,18.80
2022,10,02,09,57,18.90
2022,10,02,09,58,19.10
2022,10,02,09,59,19.10
2022,10,02,10,00,19.20
2022,10,02,10,01,19.40
2022,10,02,10,02,19.40
2022,10,02,10,03,19.60
2022,10,02,10,04,19.70
2022,10,02,10,05,19.90
2022,10,02,10,06,20.00
2022,10,02,10,07,20.00
2022,10,02,10,08,20.10
2022,10,02,10,09,20.20
2022,10,02,10,10,20.30
2022,10,02,10,11,20.30
2022,10,02,10,12,20.40
2022,10,02,10,13,20.50
2022,10,02,10,14,20.60
2022,10,02,10,15,20.70
2022,10,02,10,16,20.80
2022,10,02,10,17,20.80
2022,10,02,10,18,20.90
2022,10,02,10,19,20.90
2022,10,02,10,20,21.00
2022,10,02,10,21,21.10
2022,10,02,10,22,21.20
2022,10,02,10,23,21.20
2022,10,02,10,24,21.30
2022,10,02,10,25,21.40
2022,10,02,10,26,21.40
2022,10,02,10,27,21.50
2022,10,02,10,28,21.50
2022,10,02,10,29,21.60
2022,10,02,10,30,21.70
2022,10,02,10,31,21.80
2022,10,02,10,32,21.90
2022,10,02,10,33,22.10
2022,10,02,10,34,22.20
2022,10,02,10,35,22.30
2022,10,02,10,36,22.30
2022,10,02,10,37,22.40
2022,10,02,10,38,22.40
2022,10,02,10,39,22.40
2022,10,02,10,40,22.50
2022,10,02,10,41,22.50
2022,10,02,10,42,22.60
2022,10,02,10,43,22.60
2022,10,02,10,44,22.70
2022,10,02,10,45,22.70
2022,10,02,10,46,22.80
2022,10,02,10,47,22.80
2022,10,02,10,48,22.90
2022,10,02,10,49,22.90
2022,10,02,10,50,23.00
2022,10,02,10,51,23.00
2022,10,02,10,52,23.00
2022,10,02,10,53,23.10
2022,10,02,10,54,23.10
2022,10,02,10,55,23.10
2022,10,02,10,56,23.20
2022,10,02,10,57,23.20
2022,10,02,10,58,23.20
2022,10,02,10,59,23.20
2022,10,02,11,00,23.20
2022,10,02,11,01,23.20
2022,10,02,11,02,23.30
2022,10,02,11,03,23.30
2022,10,02,11,04,23.40
2022,10,02,11,05,23.40
2022,10,02,11,06,23.40
2022,10,02,11,07,23.40
2022,10,02,11,08,23.40
2022,10,02,11,09,23.50
2022,10,02,11,10,23.40
2022,10,02,11,11,23.50
2022,10,02,11,12,23.50
2022,10,02,11,13,23.50
2022,10,02,11,14,23.50
2022,10,02,11,15,23.50
2022,10,02,11,16,23.50
2022,10,02,11,17,23.40
2022,10,02,11,18,23.40
2022,10,02,11,19,23.40
2022,10,02,11,20,23.40
2022,10,02,11,21,23.40
2022,10,02,11,22,23.40
2022,10,02,11,23,23.40
2022,10,02,11,24,23.40
2022,10,02,11,25,23.40
2022,10,02,11,26,23.40
2022,10,02,11,27,23.40
2022,10,02,11,28,23.40
2022,10,02,11,29,23.40
2022,10,02,11,30,23.50
2022,10,02,11,31,23.50
2022,10,02,11,32,23.50
2022,10,02,11,33,23.50
2022,10,02,11,34,23.40
2022,10,02,11,35,23.40
2022,10,02,11,36,23.30
2022,10,02,11,37,23.30
2022,10,02,11,38,23.30
2022,10,02,11,39,23.30
2022,10,02,11,40,23.30
2022,10,02,11,41,23.30
2022,10,02,11,42,23.30
2022,10,02,11,43,23.40
2022,10,02,11,44,23.40
2022,10,02,11,45,23.40
2022,10,02,11,46,23.50
2022,10,02,11,47,23.50
2022,10,02,11,48,23.50
2022,10,02,11,49,23.50
2022,10,02,11,50,23.50
2022,10,02,11,51,23.50
2022,10,02,11,52,23.60
2022,10,02,11,53,23.60
2022,10,02,11,54,23.60
2022,10,02,11,55,23.60
2022,10,02,11,56,23.70
2022,10,02,11,57,23.80
2022,10,02,11,58,23.80
2022,10,02,11,59,23.80
2022,10,02,12,00,23.80
2022,10,02,12,01,23.90
2022,10,02,12,02,23.90
2022,10,02,12,03,23.90
2022,10,02,12,04,24.00
2022,10,02,12,05,24.00
2022,10,02,12,06,24.00
2022,10,02,12,07,24.10
2022,10,02,12,08,24.10
2022,10,02,12,09,24.10
2022,10,02,12,10,24.20
2022,10,02,12,11,24.20
2022,10,02,12,12,24.20
2022,10,02,12,13,24.20
2022,10,02,12,14,24.20
2022,10,02,12,15,24.30
2022,10,02,12,16,24.30
2022,10,02,12,17,24.30
2022,10,02,12,18,24.40
2022,10,02,12,19,24.50
2022,10,02,12,20,24.50
2022,10,02,12,21,24.60
2022,10,02,12,22,24.60
2022,10,02,12,23,24.60
2022,10,02,12,24,24.60
2022,10,02,12,25,24.70
2022,10,02,12,26,24.70
2022,10,02,12,27,24.80
2022,10,02,12,28,24.80
2022,10,02,12,29,24.80
2022,10,02,12,30,24.80
2022,10,02,12,31,24.80
2022,10,02,12,32,24.80
2022,10,02,12,33,24.80
2022,10,02,12,34,24.80
2022,10,02,12,35,24.90
2022,10,02,12,36,24.90
2022,10,02,12,37,25.00
2022,10,02,12,38,25.00
2022,10,02,12,39,25.00
2022,10,02,12,40,25.10
2022,10,02,12,41,25.10
2022,10,02,12,42,25.10
2022,10,02,12,43,25.10
2022,10,02,12,44,25.10
2022,10,02,12,45,25.00
2022,10,02,12,46,25.00
2022,10,02,12,47,25.00
2022,10,02,12,48,25.00
2022,10,02,12,49,25.00
2022,10,02,12,50,25.00
2022,10,02,12,51,25.10
2022,10,02,12,52,25.10
2022,10,02,12,53,25.20
2022,10,02,12,54,25.20
2022,10,02,12,55,25.30
2022,10,02,12,56,25.30
2022,10,02,12,57,25.30
2022,10,02,12,58,25.40
2022,10,02,12,59,25.50
2022,10,02,13,00,25.50
2022,10,02,13,01,25.50
2022,10,02,13,02,25.60
2022,10,02,13,03,25.60
2022,10,02,13,04,25.60
2022,10,02,13,05,25.60
2022,10,02,13,06,25.60
2022,10,02,13,07,25.50
2022,10,02,13,08,25.50
2022,10,02,13,09,25.40
2022,10,02,13,10,25.40
2022,10,02,13,11,25.30
2022,10,02,13,12,25.30
2022,10,02,13,13,25.30
2022,10,02,13,14,25.30
2022,10,02,13,15,25.30
2022,10,02,13,16,25.30
2022,10,02,13,17,25.30
2022,10,02,13,18,25.20
2022,10,02,13,19,25.20
2022,10,02,13,20,25.20
2022,10,02,13,21,25.20
2022,10,02,13,22,25.20
2022,10,02,13,23,25.20
2022,10,02,13,24,25.20
2022,10,02,13,25,25.20
2022,10,02,13,26,25.20
2022,10,02,13,27,25.20
2022,10,02,13,28,25.20
2022,10,02,13,29,25.20
2022,10,02,13,30,25.20
2022,10,02,13,31,25.20
2022,10,02,13,32,25.20
2022,10,02,13,33,25.10
2022,10,02,13,34,25.10
2022,10,02,13,35,25.10
2022,10,02,13,36,25.00
2022,10,02,13,37,25.00
2022,10,02,13,38,25.00
2022,10,02,13,39,25.00
2022,10,02,13,40,25.00
2022,10,02,13,41,25.00
2022,10,02,13,42,25.00
2022,10,02,13,43,25.00
2022,10,02,13,44,25.00
2022,10,02,13,45,25.00
2022,10,02,13,46,25.00
2022,10,02,13,47,25.00
2022,10,02,13,48,25.00
2022,10,02,13,49,24.90
2022,10,02,13,50,24.90
2022,10,02,13,51,24.90
2022,10,02,13,52,24.90
2022,10,02,13,53,24.90
2022,10,02,13,54,24.90
2022,10,02,13,55,24.90
2022,10,02,13,56,24.90
2022,10,02,13,57,24.90
2022,10,02,13,58,24.90
2022,10,02,13,59,24.90
2022,10,02,14,00,24.90
2022,10,02,14,01,24.90
2022,10,02,14,02,24.90
2022,10,02,14,03,24.90
2022,10,02,14,04,24.90
2022,10,02,14,05,24.90
2022,10,02,14,06,24.90
2022,10,02,14,07,24.90
2022,10,02,14,08,24.90
2022,10,02,14,09,24.90
2022,10,02,14,10,24.90
2022,10,02,14,11,24.90
2022,10,02,14,12,24.90
2022,10,02,14,13,24.90
2022,10,02,14,14,24.90
2022,10,02,14,15,24.90
2022,10,02,14,16,24.90
2022,10,02,14,17,24.90
2022,10,02,14,18,24.90
2022,10,02,14,19,24.90
2022,10,02,14,20,24.90
2022,10,02,14,21,24.90
2022,10,02,14,22,24.90
2022,10,02,14,23,24.90
2022,10,02,14,24,24.90
2022,10,02,14,25,24.90
2022,10,02,14,26,24.90
2022,10,02,14,27,24.90
2022,10,02,14,28,24.90
2022,10,02,14,29,24.90
2022,10,02,14,30,25.00
2022,10,02,14,31,25.00
2022,10,02,14,32,25.00
2022,10,02,14,33,25.10
2022,10,02,14,34,25.10
2022,10,02,14,35,25.10
2022,10,02,14,36,25.10
2022,10,02,14,37,25.10
2022,10,02,14,38,25.10
2022,10,02,14,39,25.10
2022,10,02,14,40,25.10
2022,10,02,14,41,25.00
2022,10,02,14,42,25.00
2022,10,02,14,43,25.10
2022,10,02,14,44,25.10
2022,10,02,14,45,25.10
2022,10,02,14,46,25.10
2022,10,02,14,47,25.10
2022,10,02,14,48,25.10
2022,10,02,14,49,25.10
2022,10,02,14,50,25.10
2022,10,02,14,51,25.10
2022,10,02,14,52,25.10
2022,10,02,14,53,25.10
2022,10,02,14,54,25.20
2022,10,02,14,55,25.20
2022,10,02,14,56,25.20
2022,10,02,14,57,25.20
2022,10,02,14,58,25.20
2022,10,02,14,59,25.20
2022,10,02,15,00,25.20
2022,10,02,15,01,25.20
2022,10,02,15,02,25.20
2022,10,02,15,03,25.20
2022,10,02,15,04,25.20
2022,10,02,15,05,25.20
2022,10,02,15,06,25.20
2022,10,02,15,07,25.20
2022,10,02,15,08,25.20
2022,10,02,15,09,25.20
2022,10,02,15,10,25.20
2022,10,02,15,11,25.20
2022,10,02,15,12,25.20
2022,10,02,15,13,25.30
2022,10,02,15,14,25.30
2022,10,02,15,15,25.20
2022,10,02,15,16,25.20
2022,10,02,15,17,25.20
2022,10,02,15,18,25.20
2022,10,02,15,19,25.20
2022,10,02,15,20,25.20
2022,10,02,15,21,25.20
2022,10,02,15,22,25.20
2022,10,02,15,23,25.20
2022,10,02,15,24,25.20
2022,10,02,15,25,25.20
2022,10,02,15,26,25.20
2022,10,02,15,27,25.20
2022,10,02,15,28,25.20
2022,10,02,15,29,25.20
2022,10,02,15,30,25.20
2022,10,02,15,31,25.20
2022,10,02,15,32,25.10
2022,10,02,15,33,25.10
2022,10,02,15,34,25.10
2022,10,02,15,35,25.10
2022,10,02,15,36,25.10
2022,10,02,15,37,25.10
2022,10,02,15,38,25.10
2022,10,02,15,39,25.10
2022,10,02,15,40,25.10
2022,10,02,15,41,25.10
2022,10,02,15,42,25.10
2022,10,02,15,43,25.10
2022,10,02,15,44,25.10
2022,10,02,15,45,25.10
2022,10,02,15,46,25.10
2022,10,02,15,47,25.10
2022,10,02,15,48,25.10
2022,10,02,15,49,25.10
2022,10,02,15,50,25.10
2022,10,02,15,51,25.10
2022,10,02,15,52,25.10
2022,10,02,15,53,25.10
2022,10,02,15,54,25.10
2022,10,02,15,55,25.10
2022,10,02,15,56,25.10
2022,10,02,15,57,25.10
2022,10,02,15,58,25.10
2022,10,02,15,59,25.10
2022,10,02,16,00,25.10
2022,10,02,16,01,25.10
2022,10,02,16,02,25.10
2022,10,02,16,03,25.10
2022,10,02,16,04,25.10
2022,10,02,16,05,25.10
2022,10,02,16,06,25.10
2022,10,02,16,07,25.10
2022,10,02,16,08,25.10
2022,10,02,16,09,25.10
2022,10,02,16,10,25.10
2022,10,02,16,11,25.10
2022,10,02,16,12,25.10
2022,10,02,16,13,25.10
2022,10,02,16,14,25.10
2022,10,02,16,15,25.10
2022,10,02,16,16,25.20
2022,10,02,16,17,25.10
2022,10,02,16,18,25.10
2022,10,02,16,19,25.10
2022,10,02,16,20,25.10
2022,10,02,16,21,25.10
2022,10,02,16,22,25.10
2022,10,02,16,23,25.10
2022,10,02,16,24,25.10
2022,10,02,16,25,25.10
2022,10,02,16,26,25.10
2022,10,02,16,27,25.10
2022,10,02,16,28,25.10
2022,10,02,16,29,25.10
2022,10,02,16,30,25.10
2022,10,02,16,31,25.10
2022,10,02,16,32,25.10
2022,10,02,16,33,25.10
2022,10,02,16,34,25.10
2022,10,02,16,35,25.00
2022,10,02,16,36,25.00
2022,10,02,16,37,25.00
2022,10,02,16,38,25.00
2022,10,02,16,39,25.00
2022,10,02,16,40,25.00
2022,10,02,16,41,25.00
2022,10,02,16,42,25.00
2022,10,02,16,43,24.90
2022,10,02,16,44,24.90
2022,10,02,16,45,24.90
2022,10,02,16,46,24.90
2022,10,02,16,47,24.90
2022,10,02,16,48,24.90
2022,10,02,16,49,24.90
2022,10,02,16,50,24.90
2022,10,02,16,51,24.90
2022,10,02,16,52,24.90
2022,10,02,16,53,24.90
2022,10,02,16,54,24.90
2022,10,02,16,55,24.90
2022,10,02,16,56,24.90
2022,10,02,16,57,24.80
2022,10,02,16,58,24.80
2022,10,02,16,59,24.80
2022,10,02,17,00,24.80
2022,10,02,17,01,24.80
2022,10,02,17,02,24.80
2022,10,02,17,03,24.80
2022,10,02,17,04,24.70
2022,10,02,17,05,24.70
2022,10,02,17,06,24.70
2022,10,02,17,07,24.70
2022,10,02,17,08,24.70
2022,10,02,17,09,24.70
2022,10,02,17,10,24.70
2022,10,02,17,11,24.70
2022,10,02,17,12,24.60
2022,10,02,17,13,24.60
2022,10,02,17,14,24.60
2022,10,02,17,15,24.60
2022,10,02,17,16,24.60
2022,10,02,17,17,24.50
2022,10,02,17,18,24.50
2022,10,02,17,19,24.40